Location: Chuathbaluk
(61.5726°N, 159.2454°W)
Time: 13:59:39
(UTC+00:00)

Altair - Pass Details

Date: 05 December 2020
Orbit: 1501 x 1682 km, 47.2° (Epoch: 17 January)

Event Time Altitude Azimuth Distance (km) Brightness Sun altitude
Rises 06:00:13 0° 217° (SW) 4,737 10.4 -30.6°
Reaches altitude 10° 06:03:57 10° 205° (SSW) 3,728 9.7 -31.0°
Enters shadow 06:09:22 24° 171° (S) 2,739 8.6 -31.6°
